Home > Time Zones > World Clock > Weather > U.S.A. > Bend > Past weeks

Flag for U.S.A. Weather past 2 weeks in Bend, Oregon, U.S.A.

Now
31 °F

Clear.


Feels Like: 26 °F
Forecast: 34 / 71 °F
Wind: 5 mph from Southeast

Location: Roberts Field Airport

Current Time: Apr 19, 2015 at 4:20:03 AM

Latest Report: Apr 19, 2015 at 3:56 AM


Visibility: 10 mi

Pressure: 30.19 "Hg

Humidity: 61%

Dew point: 19 °F

Location of BendLocation

Historic Weather in Bend — Graph

°F

Bend temperature yesterday

Maximum temperature yesterday: 69 °F (at 4:56 PM)
Minimum temperature yesterday: 29 °F (at 5:56 AM)
Average temperature yesterday: 49 °F

Past Weeks' High & Low Weather Summary

 TemperatureHumidityPressure
High73 °F (Apr 17, 3:56 PM)97% (Apr 5, 6:56 PM)30.50 "Hg (Apr 5, 6:56 PM)
Low20 °F (Apr 9, 5:56 AM)16% (Apr 13, 11:56 AM)29.65 "Hg (Apr 5, 4:56 PM)
Average43 °F59%30.04 "Hg
* Reported Apr 4 2:56 AM — Apr 19 2:56 AM, Bend, Weather by CustomWeather, © 2015

Note: Actual official high and low records may vary slightly from our data, if they occured in-between our weather recording intervals... More about our weather records

Advertising

Bend weather history for previous 24 hours

 ConditionsComfort  
Time TempWeatherWind HumidityBarometerVisibility
2:56 AM
Sun, Apr 19
34 °FClear.No wind56%30.19 "Hg10 mi
1:56 AM34 °FClear.6 mph56%30.19 "Hg10 mi
12:56 AM35 °FClear.5 mph56%30.21 "Hg10 mi
11:56 PM
Sat, Apr 18
41 °FClear.5 mph47%30.20 "Hg10 mi
10:56 PM37 °FClear.No wind52%30.21 "Hg10 mi
9:56 PM44 °FClear.No wind40%30.20 "Hg10 mi
8:56 PM50 °FClear.5 mph29%30.20 "Hg10 mi
7:56 PM58 °FSunny.7 mph21%30.19 "Hg10 mi
6:56 PM64 °FSunny.14 mph17%30.19 "Hg10 mi
5:56 PM67 °FSunny.13 mph17%30.20 "Hg10 mi
4:56 PM69 °FSunny.15 mph18%30.19 "Hg10 mi
3:56 PM68 °FSunny.16 mph21%30.22 "Hg10 mi
2:56 PM67 °FSunny.15 mph24%30.22 "Hg10 mi
1:56 PM65 °FSunny.14 mph31%30.25 "Hg10 mi
12:56 PM62 °FSunny.7 mph35%30.26 "Hg10 mi
11:56 AM59 °FSunny.5 mph38%30.28 "Hg10 mi
10:56 AM57 °FSunny.8 mph44%30.29 "Hg10 mi
9:56 AM51 °FSunny.7 mph52%30.29 "Hg10 mi
8:56 AM46 °FSunny.No wind58%30.29 "Hg10 mi
7:56 AM38 °FSunny.5 mph76%30.29 "Hg10 mi
6:56 AM29 °FClear.3 mph93%30.27 "Hg10 mi
5:56 AM29 °FClear.6 mph89%30.24 "Hg10 mi
4:56 AM32 °FClear.5 mph85%30.22 "Hg10 mi
Weather by CustomWeather, © 2015

See weather overviewHow to use our weather pages